When you browse on this site, cookies collect data to enhance your experience and personalize the content and advertising you see.
Visit our Privacy Policy to learn more. By continuing to use the site, you agree to this use of cookies and data.

Hourly Weather Novoe Arhangelskoe

Today, 13 July, Monday

Time Temperature Precipitation Wind Pressure Humidity
00:00 +18°C° 0 mm 2 mps 735 mmHg 79%
01:00 +17°C° 0 mm 2 mps 735 mmHg 81%
02:00 +18°C° 0 mm 1 mps 734 mmHg 83%
03:00 +18°C° 0 mm 1 mps 734 mmHg 83%
04:00 +17°C° 0 mm 2 mps 734 mmHg 84%
05:00 +17°C° 0 mm 2 mps 733 mmHg 85%
06:00 +19°C° 0 mm 2 mps 734 mmHg 82%
07:00 +20°C° 0 mm 2 mps 734 mmHg 80%
08:00 +22°C° 0 mm 3 mps 734 mmHg 77%
09:00 +24°C° 0 mm 2 mps 733 mmHg 74%
10:00 +24°C° 0 mm 2 mps 733 mmHg 71%
11:00 +25°C° 0 mm 2 mps 733 mmHg 68%
12:00 +25°C° 0.6 mm 3 mps 733 mmHg 72%
13:00 +24°C° 0.6 mm 3 mps 733 mmHg 76%
14:00 +22°C° 0.6 mm 3 mps 733 mmHg 80%
15:00 +23°C° 0.6 mm 2 mps 732 mmHg 82%
16:00 +21°C° 0.6 mm 2 mps 732 mmHg 85%
17:00 +22°C° 0.6 mm 1 mps 731 mmHg 88%
18:00 +20°C° 0.2 mm 2 mps 731 mmHg 89%
19:00 +19°C° 0.2 mm 2 mps 731 mmHg 91%
20:00 +18°C° 0.2 mm 3 mps 731 mmHg 93%
21:00 +18°C° 0.6 mm 3 mps 731 mmHg 94%
22:00 +17°C° 0.6 mm 2 mps 731 mmHg 95%
23:00 +17°C° 0.6 mm 2 mps 731 mmHg 96%

Tomorrow, 14 July, Tuesday

Time Temperature Precipitation Wind Pressure Humidity
00:00 +17°C° 0.9 mm 2 mps 731 mmHg 96%
01:00 +17°C° 0.9 mm 3 mps 731 mmHg 97%
02:00 +17°C° 0.9 mm 3 mps 731 mmHg 97%
03:00 +17°C° 0.7 mm 4 mps 731 mmHg 97%
04:00 +17°C° 0.7 mm 4 mps 730 mmHg 97%
05:00 +16°C° 0.7 mm 5 mps 730 mmHg 97%
06:00 +16°C° 1.6 mm 5 mps 730 mmHg 97%
07:00 +16°C° 1.6 mm 5 mps 730 mmHg 97%
08:00 +16°C° 1.6 mm 5 mps 730 mmHg 97%
09:00 +16°C° 1.1 mm 5 mps 730 mmHg 97%
10:00 +17°C° 1.1 mm 5 mps 729 mmHg 97%
11:00 +17°C° 1.1 mm 5 mps 729 mmHg 97%
12:00 +17°C° 4.7 mm 5 mps 728 mmHg 97%
13:00 +17°C° 4.7 mm 5 mps 728 mmHg 97%
14:00 +17°C° 4.7 mm 5 mps 727 mmHg 97%
15:00 +17°C° 5.9 mm 5 mps 727 mmHg 96%
16:00 +16°C° 5.9 mm 5 mps 727 mmHg 96%
17:00 +17°C° 5.9 mm 4 mps 726 mmHg 95%
18:00 +17°C° 0.1 mm 4 mps 726 mmHg 96%
19:00 +17°C° 0.1 mm 3 mps 726 mmHg 96%
20:00 +16°C° 0.1 mm 2 mps 726 mmHg 97%
21:00 +16°C° 0 mm 2 mps 726 mmHg 97%
22:00 +16°C° 0 mm 2 mps 726 mmHg 97%
23:00 +15°C° 0 mm 2 mps 725 mmHg 98%

Day after tomorrow, 15 July, Wednesday

Time Temperature Precipitation Wind Pressure Humidity
00:00 +15°C° 0 mm 2 mps 725 mmHg 98%
01:00 +15°C° 0 mm 2 mps 725 mmHg 98%
02:00 +15°C° 0 mm 2 mps 725 mmHg 98%
03:00 +15°C° 0.1 mm 2 mps 725 mmHg 98%
04:00 +16°C° 0.1 mm 2 mps 725 mmHg 97%
05:00 +16°C° 0.1 mm 2 mps 725 mmHg 97%
06:00 +14°C° 0.2 mm 3 mps 725 mmHg 96%
07:00 +14°C° 0.2 mm 3 mps 725 mmHg 96%
08:00 +14°C° 0.2 mm 3 mps 725 mmHg 95%
09:00 +14°C° 0.5 mm 4 mps 725 mmHg 94%
10:00 +14°C° 0.5 mm 5 mps 726 mmHg 93%
11:00 +13°C° 0.5 mm 5 mps 726 mmHg 93%
12:00 +13°C° 0.5 mm 5 mps 726 mmHg 92%
13:00 +13°C° 0.5 mm 5 mps 726 mmHg 92%
14:00 +11°C° 0.5 mm 6 mps 727 mmHg 91%
15:00 +12°C° 0.3 mm 5 mps 727 mmHg 92%
16:00 +12°C° 0.3 mm 4 mps 727 mmHg 92%
17:00 +12°C° 0.3 mm 3 mps 727 mmHg 92%
18:00 +12°C° 0.1 mm 4 mps 728 mmHg 93%
19:00 +13°C° 0.1 mm 4 mps 728 mmHg 94%
20:00 +13°C° 0.1 mm 5 mps 728 mmHg 95%
21:00 +13°C° 0.1 mm 5 mps 729 mmHg 95%
22:00 +13°C° 0.1 mm 6 mps 729 mmHg 95%
23:00 +12°C° 0.1 mm 7 mps 729 mmHg 95%

16 July, Thursday

Time Temperature Precipitation Wind Pressure Humidity
00:00 +12°C° 0.1 mm 7 mps 729 mmHg 95%
01:00 +12°C° 0.1 mm 7 mps 729 mmHg 95%
02:00 +11°C° 0.1 mm 7 mps 730 mmHg 95%
03:00 +11°C° 0 mm 6 mps 730 mmHg 95%
04:00 +11°C° 0 mm 6 mps 730 mmHg 95%
05:00 +11°C° 0 mm 6 mps 730 mmHg 94%
06:00 +11°C° 0 mm 6 mps 731 mmHg 93%
07:00 +11°C° 0 mm 6 mps 731 mmHg 93%
08:00 +13°C° 0 mm 6 mps 731 mmHg 92%
09:00 +13°C° 0 mm 6 mps 732 mmHg 90%
10:00 +14°C° 0 mm 6 mps 732 mmHg 88%
11:00 +14°C° 0 mm 6 mps 732 mmHg 86%
12:00 +15°C° 0 mm 6 mps 732 mmHg 85%
13:00 +15°C° 0 mm 5 mps 733 mmHg 84%
14:00 +16°C° 0 mm 5 mps 733 mmHg 83%
15:00 +16°C° 0 mm 5 mps 733 mmHg 83%
16:00 +15°C° 0 mm 4 mps 733 mmHg 84%
17:00 +15°C° 0 mm 4 mps 733 mmHg 85%
18:00 +15°C° 0 mm 4 mps 733 mmHg 86%
19:00 +14°C° 0 mm 4 mps 733 mmHg 87%
20:00 +14°C° 0 mm 3 mps 733 mmHg 88%
21:00 +14°C° 0 mm 4 mps 733 mmHg 87%
22:00 +14°C° 0 mm 4 mps 733 mmHg 85%
23:00 +13°C° 0 mm 4 mps 733 mmHg 84%

17 July, Friday

Time Temperature Precipitation Wind Pressure Humidity
00:00 +13°C° 0 mm 4 mps 733 mmHg 84%
01:00 +13°C° 0 mm 4 mps 733 mmHg 83%
02:00 +13°C° 0 mm 4 mps 733 mmHg 83%
03:00 +13°C° 0 mm 4 mps 733 mmHg 85%
04:00 +13°C° 0 mm 4 mps 733 mmHg 87%
05:00 +13°C° 0 mm 3 mps 733 mmHg 89%
06:00 +14°C° 0 mm 4 mps 734 mmHg 88%
07:00 +15°C° 0 mm 4 mps 734 mmHg 86%
08:00 +17°C° 0 mm 4 mps 734 mmHg 85%
09:00 +17°C° 0 mm 4 mps 734 mmHg 83%
10:00 +18°C° 0 mm 4 mps 734 mmHg 80%
11:00 +19°C° 0 mm 4 mps 734 mmHg 78%
12:00 +19°C° 0.3 mm 4 mps 734 mmHg 78%
13:00 +19°C° 0.3 mm 4 mps 734 mmHg 78%
14:00 +19°C° 0.3 mm 4 mps 734 mmHg 78%
15:00 +19°C° 0.2 mm 4 mps 734 mmHg 80%
16:00 +19°C° 0.2 mm 4 mps 734 mmHg 82%
17:00 +19°C° 0.2 mm 3 mps 734 mmHg 83%
18:00 +18°C° 0.1 mm 3 mps 735 mmHg 87%
19:00 +17°C° 0.1 mm 3 mps 735 mmHg 90%
20:00 +16°C° 0.1 mm 2 mps 735 mmHg 93%
21:00 +15°C° 0 mm 2 mps 735 mmHg 94%
22:00 +14°C° 0 mm 2 mps 735 mmHg 95%
23:00 +14°C° 0 mm 2 mps 735 mmHg 96%

18 July, Saturday

Time Temperature Precipitation Wind Pressure Humidity
00:00 +14°C° 0 mm 2 mps 735 mmHg 96%
01:00 +13°C° 0 mm 2 mps 735 mmHg 97%
02:00 +13°C° 0 mm 2 mps 736 mmHg 97%
03:00 +12°C° 0 mm 3 mps 736 mmHg 97%
04:00 +12°C° 0 mm 3 mps 736 mmHg 97%
05:00 +12°C° 0 mm 3 mps 736 mmHg 96%
06:00 +13°C° 0 mm 3 mps 736 mmHg 93%
07:00 +16°C° 0 mm 3 mps 736 mmHg 89%
08:00 +17°C° 0 mm 3 mps 736 mmHg 85%
09:00 +17°C° 0.1 mm 3 mps 736 mmHg 83%
10:00 +18°C° 0.1 mm 3 mps 736 mmHg 81%
11:00 +18°C° 0.1 mm 3 mps 737 mmHg 79%
12:00 +19°C° 0.1 mm 3 mps 737 mmHg 78%
13:00 +19°C° 0.1 mm 3 mps 737 mmHg 76%
14:00 +20°C° 0.1 mm 3 mps 737 mmHg 75%
15:00 +20°C° 0.1 mm 3 mps 737 mmHg 77%
16:00 +19°C° 0.1 mm 3 mps 737 mmHg 78%
17:00 +19°C° 0.1 mm 4 mps 736 mmHg 80%
18:00 +18°C° 0 mm 3 mps 737 mmHg 85%
19:00 +16°C° 0 mm 3 mps 737 mmHg 89%
20:00 +14°C° 0 mm 2 mps 737 mmHg 94%
21:00 +14°C° 0 mm 2 mps 737 mmHg 93%
22:00 +13°C° 0 mm 2 mps 737 mmHg 93%
23:00 +13°C° 0 mm 2 mps 737 mmHg 92%
Show more